Tracking 18876 objects as of 13-Dec-2017
HD Live streaming from Space Station
objects crossing your sky now

AMSAT OSCAR 40

Track AMSAT OSCAR 40 now!
AMSAT OSCAR 40 is classified as:


NORAD ID: 26609
Int'l Code: 2000-072B
Perigee: 1,172.6 km
Apogee: 58,663.3 km
Inclination: 6.5 °
Period: 1,146.6 minutes
Semi major axis: 36288 km
RCS: 1.8057 m2 (large)
Launch date: November 16, 2000
Source: Germany (GER)
Launch site: FRENCH GUIANA (FRGUI)
Uplink (MHz):
Downlink (MHz):
Beacon (MHz): 2401.323
Mode: 400bps PSK
Call sign:
Status: Inactive

aabbcc
Your satellite tracking list
Your tracking list is empty




NASA's NSSDC Master Catalog

Two Line Element Set (TLE):
1 26609U 00072B   17346.56248922 -.00000063  00000-0  00000+0 0  9990
2 26609   6.5391 187.2528 7921249 190.4517 126.6990  1.25586133 78588
Source of the keplerian elements: AFSPC